Regional Weather Roundup
Issued by NWS

Home | Current Version | Previous Version | Text Only | Print | Product List | Glossary Off
Versions: 1 2 3 4 5 6 7 8 9 10 11 12 13 14 15 16 17 18 19 20 21 22 23 24 25 26 27 28 29 30 31 32 33 34 35 36 37 38 39 40 41 42 43 44 45 46 47 48 49 50

825
ASUS44 KLIX 242310
RWRLA
LOUISIANA WEATHER ROUNDUP
NATIONAL WEATHER SERVICE NEW ORLEANS LA
600 PM CDT FRI OCT 24 2014

NOTE: "FAIR" INDICATES FEW OR NO CLOUDS BELOW 12,000 FEET WITH NO
      SIGNIFICANT WEATHER AND/OR OBSTRUCTIONS TO VISIBILITY.
      SKY/WX - SKY CONDITION AND SIGNIFICANT WEATHER.
      TMP - AIR TEMPERATURE.    DP   - DEWPOINT TEMPERATURE.
      RH  - RELATIVE HUMIDITY.  PRES - PRESSURE.
      HX  - HEAT INDEX.         WCI  - WIND CHILL INDEX.

*  THESE STATIONS ARE NOT NWS OR FAA STATIONS AND ARE NOT UNDER
   NWS QUALITY CONTROL.

LAZ040-048-061>063-065-066-069-250000-
SOUTHEAST LOUISIANA

CITY           SKY/WX    TMP DP  RH WIND       PRES   REMARKS
N.O. AUDUBON   NOT AVBL
N.O. INTL ARPT PTCLDY    72  47  40 NW8       30.06R
N.O. LAKEFRONT CLEAR     73  54  51 NW10      30.05R
N.O. DOWNTOWN* FAIR      73  45  35 NW5       30.06R
SLIDELL        CLEAR     72  47  40 N5        30.05R
BATON ROUGE    CLEAR     73  46  38 N3        30.08R
BOOTHVILLE     CLEAR     71  52  50 CALM      30.04S
BELLE CHASSE   PTCLDY    73  45  36 N5        30.04S
BOGALUSA*        N/A     72  43  35 N6        30.07S
NEW ROADS*     FAIR      70  48  46 NW7       30.09R
GONZALES*      FAIR      70  51  51 N3        30.06S
HAMMOND*       CLEAR     73  45  35 NW3       30.08S
HOUMA*         CLEAR     72  46  40 N3        30.05R
PORT FOURCHON* CLEAR     73  46  38 N10       30.08R

$$

LAZ041-044-053-054-250000-
SOUTHWEST LOUISIANA

CITY           SKY/WX    TMP DP  RH WIND       PRES   REMARKS
LAKE CHARLES   CLEAR     74  48  39 NE8       30.09S
LAFAYETTE      CLEAR     73  46  38 N8        30.08R
PATTERSON      CLEAR     72  52  49 N7        30.09R
SALT POINT       N/A     73  51  46 N5        30.06R
NEW IBERIA     CLEAR     73  47  39 N9        30.08R
CHENAULT AIRPK NOT AVBL

$$

LAZ027-028-250000-
CENTRAL LOUISIANA

CITY           SKY/WX    TMP DP  RH WIND       PRES   REMARKS
FORT POLK      CLEAR     72  49  44 N6        30.10S
ALEXANDRIA INT CLEAR     72  50  45 N6        30.09R
ALEXANDRIA     CLEAR     66  55  67 N3        30.10S

$$

LAZ001-002-250000-
NORTHWEST LOUISIANA

CITY           SKY/WX    TMP DP  RH WIND       PRES   REMARKS
SHREVEPORT     MOCLDY    75  54  47 CALM      30.09F
BARKSDALE AFB  CLEAR     73  55  52 E3        30.10F
DTN SHREVEPORT CLEAR     73  55  53 CALM      30.10F

$$

LAZ014-016-250000-
NORTHEAST LOUISIANA

CITY           SKY/WX    TMP DP  RH WIND       PRES   REMARKS
MONROE         CLEAR     69  51  52 N3        30.11S
TALLULAH       CLEAR     63  53  70 NW3       30.09S

$$




USA.gov is the U.S. government's official web portal to all federal, state and local government web resources and services.